Location: Vinland
(47.7731°N, 122.6974°W)
Time: 19:53:43
(UTC+00:00)

Vanguard 1 Rocket - Pass Details

Date: 26 March 2023
Orbit: 654 x 4221 km, 34.3° (Epoch: 29 May)

Event Time Altitude Azimuth Distance (km) Brightness Sun altitude
Exits shadow 12:31:46 18° 231° (SW) 3,215 9.6 -15.5°
Maximum altitude 12:33:03 19° 222° (SW) 3,026 9.5 -15.3°
Drops below altitude 10° 12:37:59 10° 180° (S) 3,026 9.9 -14.5°
Sets 12:41:05 0° 161° (SSE) 3,618 10.5 -14.1°
